Location: Unspecified
(0.0000°N, 0.0000°E)
Time: 03:09:31
(UTC+00:00)

Vanguard 2 - All Passes

Search period start: 02 April 2015 00:00
Search period end: 12 April 2015 00:00
Orbit: 553 x 2945 km, 32.9° (Epoch: 01 April)

Date Brightness Start Highest point End Pass type
(mag) Time Alt. Az. Time Alt. Az. Time Alt. Az.
02 Apr - 00:05:22 10° WNW 00:21:13 57° SW 00:31:18 10° SE visible
02 Apr - 02:26:04 10° WSW 02:31:52 14° SW 02:35:58 10° S night (unlit)
02 Apr - 09:06:38 10° SSE 09:07:33 11° SE 09:08:46 10° SE daylight
02 Apr - 11:10:59 10° WSW 11:15:46 79° NW 11:23:20 10° NE daylight
02 Apr - 13:21:01 10° WNW 13:26:25 21° NNW 13:33:44 10° NNE daylight
02 Apr - 15:36:28 10° NNW 15:40:28 12° N 15:44:54 10° NNE daylight
02 Apr - 17:49:03 10° NNW 17:57:19 16° NNE 18:07:09 10° NE daylight
02 Apr - 19:59:00 10° NNW 20:13:58 35° NNE 20:28:26 10° E visible
02 Apr - 22:10:25 10° NW 22:28:26 77° NE 22:41:33 10° ESE visible
03 Apr - 00:25:40 10° WNW 00:40:18 42° SW 00:49:48 10° SSE visible
03 Apr - 09:23:24 10° SSW 09:26:32 21° SE 09:30:25 10° E daylight
03 Apr - 11:30:12 10° WSW 11:34:58 46° NNW 11:42:18 10° NE daylight
03 Apr - 13:41:54 10° NW 13:46:24 15° NNW 13:51:51 10° NNE daylight
03 Apr - 15:58:17 10° N 16:01:08 11° N 16:04:22 10° NNE daylight
03 Apr - 18:08:01 10° NNW 18:17:58 20° NNE 18:29:44 10° ENE visible
03 Apr - 20:17:45 10° NW 20:33:57 44° NNE 20:48:57 10° E visible
03 Apr - 22:29:44 10° NW 22:47:48 85° SW 23:00:41 10° SE visible
04 Apr - 00:46:33 10° W 00:59:28 31° SW 01:08:05 10° SSE night (unlit)
04 Apr - 09:41:33 10° SSW 09:45:25 40° SE 09:50:29 10° ENE daylight
04 Apr - 11:49:49 10° W 11:54:23 28° NNW 12:00:55 10° NNE daylight
04 Apr - 14:03:57 10° NNW 14:06:34 11° N 14:09:16 10° N daylight
04 Apr - 16:18:35 10° N 16:21:51 11° N 16:25:52 10° NNE daylight
04 Apr - 18:26:44 10° NNW 18:38:24 24° NNE 18:51:54 10° ENE visible
04 Apr - 20:36:33 10° NW 20:53:44 55° NNE 21:09:00 10° ESE visible
04 Apr - 22:49:20 10° WNW 23:07:03 68° SW 23:19:34 10° SE visible
05 Apr - 01:08:10 10° W 01:18:47 22° SW 01:26:08 10° S night (unlit)
05 Apr - 10:00:12 10° SW 10:04:18 82° SE 10:09:56 10° ENE daylight
05 Apr - 12:10:02 10° WNW 12:14:01 18° NNW 12:19:07 10° NNE daylight
05 Apr - 16:37:29 10° N 16:42:32 13° NNE 16:48:56 10° NE daylight
05 Apr - 18:45:21 10° NNW 18:58:35 31° NNE 19:13:29 10° E visible
05 Apr - 20:55:29 10° NW 21:13:18 70° NE 21:28:40 10° ESE visible
05 Apr - 23:09:20 10° WNW 23:26:16 52° SW 23:38:14 10° SE visible
06 Apr - 01:30:44 10° WSW 01:38:21 16° SSW 01:43:45 10° S night (unlit)
06 Apr - 08:13:01 10° S 08:15:04 14° SSE 08:17:18 10° ESE daylight
06 Apr - 10:19:17 10° WSW 10:23:21 51° NNW 10:28:55 10° NE daylight
06 Apr - 12:31:16 10° NW 12:33:49 12° NNW 12:36:33 10° N daylight
06 Apr - 16:55:58 10° N 17:03:04 16° NNE 17:12:12 10° NE daylight
06 Apr - 19:03:58 10° NNW 19:18:33 39° NNE 19:34:27 10° E visible
06 Apr - 21:14:36 10° NW 21:32:45 86° NE 21:48:00 10° SE visible
06 Apr - 23:29:48 10° W 23:45:33 40° SW 23:56:44 10° SSE visible
07 Apr - 01:55:20 10° SW 01:58:08 11° SSW 01:59:53 10° SSW night (unlit)
07 Apr - 08:30:42 10° SSW 08:34:07 27° SE 08:37:48 10° E daylight
07 Apr - 10:38:50 10° W 10:42:35 28° NNW 10:47:29 10° NNE daylight
07 Apr - 17:14:20 10° NNW 17:23:25 20° NNE 17:35:04 10° ENE daylight
07 Apr - 19:22:38 10° NW 19:38:16 50° NNE 19:54:53 10° ESE visible
07 Apr - 21:33:57 10° WNW 21:52:07 77° SW 22:07:03 10° SE visible
07 Apr - 23:50:52 10° W 00:04:59 30° SSW 00:15:05 10° SSE visible
08 Apr - 08:49:10 10° SW 08:53:04 58° SE 08:57:24 10° ENE daylight
08 Apr - 10:59:03 10° WNW 11:02:01 16° NNW 11:05:29 10° NNE daylight
08 Apr - 17:32:42 10° NNW 17:43:31 26° NNE 17:57:17 10° E daylight
08 Apr - 19:41:23 10° NW 19:57:50 62° NE 20:14:50 10° ESE visible
08 Apr - 21:53:39 10° WNW 22:11:27 62° SW 22:25:54 10° SE visible
09 Apr - 00:12:39 10° WSW 00:24:36 23° SSW 00:33:15 10° SSE visible
09 Apr - 07:02:07 10° S 07:03:25 11° SSE 07:04:49 10° SE daylight
09 Apr - 09:08:06 10° WSW 09:12:01 64° NW 09:16:28 10° NE daylight
09 Apr - 15:46:17 10° N 15:48:48 11° NNE 15:52:24 10° NE daylight
09 Apr - 17:51:07 10° NNW 18:03:22 33° NNE 18:18:48 10° E daylight
09 Apr - 20:00:19 10° NW 20:17:17 78° NE 20:34:25 10° ESE visible
09 Apr - 22:13:45 10° WNW 22:30:51 48° SW 22:44:35 10° SE visible
10 Apr - 00:35:16 10° WSW 00:44:28 17° SSW 00:51:12 10° S night (unlit)
10 Apr - 07:19:18 10° SSW 07:22:42 21° SSE 07:25:50 10° E daylight
10 Apr - 09:27:33 10° W 09:31:04 30° NNW 09:35:03 10° NNE daylight
10 Apr - 16:03:18 10° N 16:09:01 15° NNE 16:16:49 10° NE daylight
10 Apr - 18:09:36 10° NNW 18:23:00 43° NNE 18:39:39 10° E visible
10 Apr - 20:19:27 10° NW 20:36:40 86° SW 20:53:41 10° SE visible
10 Apr - 22:34:19 10° W 22:50:23 38° SSW 23:03:07 10° SSE visible
11 Apr - 00:58:57 10° SW 01:04:34 12° SSW 01:08:40 10° S night (unlit)
11 Apr - 07:37:36 10° SW 07:41:50 42° SSE 07:45:36 10° ENE daylight
11 Apr - 09:47:43 10° WNW 09:50:17 16° NNW 09:53:00 10° N daylight
11 Apr - 16:21:07 10° N 16:29:01 20° NNE 16:39:52 10° ENE daylight
11 Apr - 18:28:12 10° NW 18:42:28 55° NE 18:59:58 10° ESE visible
11 Apr - 20:38:52 10° WNW 20:56:04 70° SW 21:12:42 10° SE visible
11 Apr - 22:55:31 10° W 23:10:07 29° SSW 23:21:32 10° SSE visible
